Time,TemperatureF,DewpointF,PressureIn,WindDirection,WindDirectionDegrees,WindSpeedMPH,WindSpeedGustMPH,Humidity,HourlyPrecipIn,Conditions,Clouds,dailyrainin,SoftwareType,DateUTC
2013-05-05 00:00:00,54.3,49.9,30.12,ENE,68,8.0,16.0,85,0.00,,,0.00,WUHU216DAVISVP2,2013-05-05 04:00:00,
2013-05-05 00:01:00,54.3,49.9,30.12,ENE,57,6.0,12.0,85,0.00,,,0.00,WUHU216DAVISVP2,2013-05-05 04:01:00,
2013-05-05 00:06:00,54.3,49.9,30.12,ENE,60,5.0,14.0,85,0.00,,,0.00,WUHU216DAVISVP2,2013-05-05 04:06:00,
2013-05-05 00:11:00,54.3,49.9,30.12,East,79,9.0,14.0,85,0.00,,,0.00,WUHU216DAVISVP2,2013-05-05 04:11:00,
2013-05-05 00:16:00,54.3,49.6,30.12,ENE,70,7.0,13.0,84,0.00,,,0.00,WUHU216DAVISVP2,2013-05-05 04:16:00,
2013-05-05 00:21:00,54.3,49.6,30.12,ENE,64,15.0,19.0,84,0.00,,,0.00,WUHU216DAVISVP2,2013-05-05 04:21:00,
2013-05-05 00:26:00,54.3,49.6,30.12,ENE,61,6.0,19.0,84,0.00,,,0.00,WUHU216DAVISVP2,2013-05-05 04:26:00,
2013-05-05 00:30:00,54.2,49.5,30.12,ENE,68,8.0,19.0,84,0.00,,,0.00,WUHU216DAVISVP2,2013-05-05 04:30:00,
2013-05-05 00:31:00,54.2,49.5,30.12,ENE,64,9.0,18.0,84,0.00,,,0.00,WUHU216DAVISVP2,2013-05-05 04:31:00,
2013-05-05 00:36:00,54.1,49.4,30.12,ENE,60,5.0,18.0,84,0.00,,,0.00,WUHU216DAVISVP2,2013-05-05 04:36:00,
2013-05-05 00:41:00,54.1,49.1,30.12,ENE,65,6.0,14.0,83,0.00,,,0.00,WUHU216DAVISVP2,2013-05-05 04:41:00,
2013-05-05 00:46:00,54.0,49.0,30.12,ENE,63,10.0,14.0,83,0.00,,,0.00,WUHU216DAVISVP2,2013-05-05 04:46:00,
2013-05-05 00:51:00,54.0,49.0,30.13,ESE,111,5.0,14.0,83,0.00,,,0.00,WUHU216DAVISVP2,2013-05-05 04:51:00,
2013-05-05 00:56:00,53.9,48.9,30.13,East,94,6.0,13.0,83,0.00,,,0.00,WUHU216DAVISVP2,2013-05-05 04:56:00,
2013-05-05 01:00:00,53.9,48.5,30.13,ENE,68,7.0,14.0,82,0.00,,,0.00,WUHU216DAVISVP2,2013-05-05 05:00:00,
2013-05-05 01:01:00,53.9,48.6,30.13,East,81,16.0,17.0,82,0.00,,,0.00,WUHU216DAVISVP2,2013-05-05 05:01:00,
2013-05-05 01:06:00,53.9,48.2,30.12,ENE,71,6.0,18.0,81,0.00,,,0.00,WUHU216DAVISVP2,2013-05-05 05:06:00,
2013-05-05 01:11:00,53.8,48.4,30.12,ENE,71,11.0,18.0,82,0.00,,,0.00,WUHU216DAVISVP2,2013-05-05 05:11:00,
2013-05-05 01:16:00,53.7,48.4,30.12,ENE,70,6.0,16.0,82,0.00,,,0.00,WUHU216DAVISVP2,2013-05-05 05:16:00,
2013-05-05 01:21:00,53.6,48.3,30.12,ENE,63,6.0,16.0,82,0.00,,,0.00,WUHU216DAVISVP2,2013-05-05 05:21:00,
2013-05-05 01:26:00,53.5,47.8,30.12,ENE,63,7.0,14.0,81,0.00,,,0.00,WUHU216DAVISVP2,2013-05-05 05:26:00,
2013-05-05 01:30:00,53.4,47.7,30.12,ENE,68,8.0,18.0,81,0.00,,,0.00,WUHU216DAVISVP2,2013-05-05 05:30:00,
2013-05-05 01:31:00,53.4,47.7,30.12,NE,56,4.0,14.0,81,0.00,,,0.00,WUHU216DAVISVP2,2013-05-05 05:31:00,
2013-05-05 01:36:00,53.4,47.4,30.12,ENE,71,3.0,15.0,80,0.00,,,0.00,WUHU216DAVISVP2,2013-05-05 05:36:00,
2013-05-05 01:41:00,53.3,47.0,30.11,ESE,121,6.0,15.0,79,0.00,,,0.00,WUHU216DAVISVP2,2013-05-05 05:41:00,
2013-05-05 01:46:00,53.2,46.6,30.11,SSE,159,4.0,15.0,78,0.00,,,0.00,WUHU216DAVISVP2,2013-05-05 05:46:00,
2013-05-05 01:51:00,53.2,46.2,30.11,NE,55,5.0,15.0,77,0.00,,,0.00,WUHU216DAVISVP2,2013-05-05 05:51:00,
2013-05-05 01:56:00,53.1,46.1,30.11,NNE,31,7.0,17.0,77,0.00,,,0.00,WUHU216DAVISVP2,2013-05-05 05:56:00,
2013-05-05 02:00:00,53.1,46.1,30.11,ENE,68,8.0,17.0,77,0.00,,,0.00,WUHU216DAVISVP2,2013-05-05 06:00:00,
2013-05-05 02:01:00,53.0,46.0,30.11,ENE,72,6.0,17.0,77,0.00,,,0.00,WUHU216DAVISVP2,2013-05-05 06:01:00,
2013-05-05 02:06:00,52.9,46.3,30.10,NE,56,7.0,15.0,78,0.00,,,0.00,WUHU216DAVISVP2,2013-05-05 06:06:00,
2013-05-05 02:11:00,52.8,46.5,30.10,ENE,59,7.0,15.0,79,0.00,,,0.00,WUHU216DAVISVP2,2013-05-05 06:11:00,
2013-05-05 02:16:00,52.6,45.7,30.10,ENE,77,13.0,17.0,77,0.00,,,0.00,WUHU216DAVISVP2,2013-05-05 06:16:00,
2013-05-05 02:21:00,52.5,44.9,30.09,East,91,15.0,20.0,75,0.00,,,0.00,WUHU216DAVISVP2,2013-05-05 06:21:00,
2013-05-05 02:26:00,52.5,44.9,30.09,NE,54,9.0,20.0,75,0.00,,,0.00,WUHU216DAVISVP2,2013-05-05 06:26:00,
2013-05-05 02:30:00,52.4,44.7,30.09,ENE,68,9.0,20.0,75,0.00,,,0.00,WUHU216DAVISVP2,2013-05-05 06:30:00,
2013-05-05 02:31:00,52.3,45.0,30.09,ENE,60,10.0,19.0,76,0.00,,,0.00,WUHU216DAVISVP2,2013-05-05 06:31:00,
2013-05-05 02:36:00,52.2,44.6,30.08,NE,53,10.0,19.0,75,0.00,,,0.00,WUHU216DAVISVP2,2013-05-05 06:36:00,
2013-05-05 02:41:00,52.2,44.2,30.08,ENE,63,9.0,17.0,74,0.00,,,0.00,WUHU216DAVISVP2,2013-05-05 06:41:00,
2013-05-05 02:46:00,52.2,44.2,30.08,NE,49,5.0,20.0,74,0.00,,,0.00,WUHU216DAVISVP2,2013-05-05 06:46:00,
2013-05-05 02:51:00,52.1,44.5,30.08,ENE,61,12.0,20.0,75,0.00,,,0.00,WUHU216DAVISVP2,2013-05-05 06:51:00,
2013-05-05 02:56:00,52.0,44.7,30.08,East,81,8.0,18.0,76,0.00,,,0.00,WUHU216DAVISVP2,2013-05-05 06:56:00,
2013-05-05 03:00:00,52.0,44.7,30.08,ENE,68,9.0,20.0,76,0.00,,,0.00,WUHU216DAVISVP2,2013-05-05 07:00:00,
2013-05-05 03:01:00,51.9,44.6,30.08,ENE,68,14.0,18.0,76,0.00,,,0.00,WUHU216DAVISVP2,2013-05-05 07:01:00,
2013-05-05 03:06:00,51.8,44.1,30.08,ENE,57,7.0,15.0,75,0.00,,,0.00,WUHU216DAVISVP2,2013-05-05 07:06:00,
2013-05-05 03:11:00,51.8,43.5,30.08,ENE,73,18.0,21.0,73,0.00,,,0.00,WUHU216DAVISVP2,2013-05-05 07:11:00,
2013-05-05 03:16:00,51.7,43.4,30.08,East,99,9.0,21.0,73,0.00,,,0.00,WUHU216DAVISVP2,2013-05-05 07:16:00,
2013-05-05 03:21:00,51.7,43.8,30.08,ENE,63,12.0,21.0,74,0.00,,,0.00,WUHU216DAVISVP2,2013-05-05 07:21:00,
2013-05-05 03:26:00,51.6,43.7,30.08,NE,54,11.0,20.0,74,0.00,,,0.00,WUHU216DAVISVP2,2013-05-05 07:26:00,
2013-05-05 03:30:00,51.5,43.5,30.08,ENE,68,11.0,21.0,74,0.00,,,0.00,WUHU216DAVISVP2,2013-05-05 07:30:00,
2013-05-05 03:31:00,51.5,43.6,30.08,ENE,74,9.0,20.0,74,0.00,,,0.00,WUHU216DAVISVP2,2013-05-05 07:31:00,
2013-05-05 03:36:00,51.4,43.4,30.08,ENE,60,10.0,17.0,74,0.00,,,0.00,WUHU216DAVISVP2,2013-05-05 07:36:00,
2013-05-05 03:41:00,51.4,43.5,30.08,ENE,59,7.0,15.0,74,0.00,,,0.00,WUHU216DAVISVP2,2013-05-05 07:41:00,
2013-05-05 03:46:00,51.3,43.4,30.08,ENE,64,10.0,15.0,74,0.00,,,0.00,WUHU216DAVISVP2,2013-05-05 07:46:00,
2013-05-05 03:51:00,51.2,43.3,30.07,NE,51,10.0,16.0,74,0.00,,,0.00,WUHU216DAVISVP2,2013-05-05 07:51:00,
2013-05-05 03:56:00,51.0,43.1,30.07,ENE,58,4.0,16.0,74,0.00,,,0.00,WUHU216DAVISVP2,2013-05-05 07:56:00,
2013-05-05 04:00:00,51.0,43.0,30.07,ENE,68,9.0,17.0,74,0.00,,,0.00,WUHU216DAVISVP2,2013-05-05 08:00:00,
2013-05-05 04:01:00,50.9,43.0,30.07,ENE,58,10.0,17.0,74,0.00,,,0.00,WUHU216DAVISVP2,2013-05-05 08:01:00,
2013-05-05 04:06:00,50.8,42.9,30.07,ENE,60,11.0,17.0,74,0.00,,,0.00,WUHU216DAVISVP2,2013-05-05 08:06:00,
2013-05-05 04:11:00,50.7,42.8,30.07,NE,49,8.0,17.0,74,0.00,,,0.00,WUHU216DAVISVP2,2013-05-05 08:11:00,
2013-05-05 04:16:00,50.5,42.5,30.07,ENE,63,8.0,17.0,74,0.00,,,0.00,WUHU216DAVISVP2,2013-05-05 08:16:00,
2013-05-05 04:21:00,50.4,42.5,30.07,NE,43,11.0,17.0,74,0.00,,,0.00,WUHU216DAVISVP2,2013-05-05 08:21:00,
2013-05-05 04:26:00,50.2,42.3,30.07,ENE,57,11.0,18.0,74,0.00,,,0.00,WUHU216DAVISVP2,2013-05-05 08:26:00,
2013-05-05 04:30:00,50.1,42.1,30.07,ENE,68,10.0,18.0,74,0.00,,,0.00,WUHU216DAVISVP2,2013-05-05 08:30:00,
2013-05-05 04:31:00,50.1,42.2,30.07,ENE,67,12.0,18.0,74,0.00,,,0.00,WUHU216DAVISVP2,2013-05-05 08:31:00,
2013-05-05 04:36:00,50.0,42.5,30.07,ENE,67,6.0,16.0,75,0.00,,,0.00,WUHU216DAVISVP2,2013-05-05 08:36:00,
2013-05-05 04:41:00,49.9,42.3,30.08,ENE,63,9.0,16.0,75,0.00,,,0.00,WUHU216DAVISVP2,2013-05-05 08:41:00,
2013-05-05 04:46:00,49.7,42.5,30.08,NE,49,9.0,15.0,76,0.00,,,0.00,WUHU216DAVISVP2,2013-05-05 08:46:00,
2013-05-05 04:51:00,49.7,42.5,30.08,ENE,57,7.0,15.0,76,0.00,,,0.00,WUHU216DAVISVP2,2013-05-05 08:51:00,
2013-05-05 04:56:00,49.6,42.4,30.08,ENE,61,15.0,15.0,76,0.00,,,0.00,WUHU216DAVISVP2,2013-05-05 08:56:00,
2013-05-05 05:00:00,49.6,42.7,30.08,ENE,68,9.0,16.0,77,0.00,,,0.00,WUHU216DAVISVP2,2013-05-05 09:00:00,
2013-05-05 05:01:00,49.5,42.6,30.07,NE,49,5.0,15.0,77,0.00,,,0.00,WUHU216DAVISVP2,2013-05-05 09:01:00,
2013-05-05 05:06:00,49.4,42.5,30.07,ENE,63,9.0,18.0,77,0.00,,,0.00,WUHU216DAVISVP2,2013-05-05 09:06:00,
2013-05-05 05:11:00,49.3,42.8,30.07,NE,55,6.0,18.0,78,0.00,,,0.00,WUHU216DAVISVP2,2013-05-05 09:11:00,
2013-05-05 05:16:00,49.2,42.7,30.07,ENE,63,12.0,18.0,78,0.00,,,0.00,WUHU216DAVISVP2,2013-05-05 09:16:00,
2013-05-05 05:21:00,49.2,42.7,30.07,ENE,60,7.0,17.0,78,0.00,,,0.00,WUHU216DAVISVP2,2013-05-05 09:21:00,
2013-05-05 05:26:00,49.1,42.6,30.07,East,87,6.0,17.0,78,0.00,,,0.00,WUHU216DAVISVP2,2013-05-05 09:26:00,
2013-05-05 05:30:00,49.1,42.5,30.07,ENE,68,9.0,18.0,78,0.00,,,0.00,WUHU216DAVISVP2,2013-05-05 09:30:00,
2013-05-05 05:31:00,49.0,42.5,30.07,NE,53,9.0,17.0,78,0.00,,,0.00,WUHU216DAVISVP2,2013-05-05 09:31:00,
2013-05-05 05:36:00,49.0,42.8,30.07,ENE,59,10.0,15.0,79,0.00,,,0.00,WUHU216DAVISVP2,2013-05-05 09:36:00,
2013-05-05 05:41:00,48.8,42.6,30.06,ENE,63,13.0,18.0,79,0.00,,,0.00,WUHU216DAVISVP2,2013-05-05 09:41:00,
2013-05-05 05:46:00,48.8,42.9,30.07,NE,43,11.0,18.0,80,0.00,,,0.00,WUHU216DAVISVP2,2013-05-05 09:46:00,
2013-05-05 05:51:00,48.7,42.8,30.07,ENE,64,9.0,18.0,80,0.00,,,0.00,WUHU216DAVISVP2,2013-05-05 09:51:00,
2013-05-05 05:56:00,48.6,42.7,30.07,ENE,57,8.0,18.0,80,0.00,,,0.00,WUHU216DAVISVP2,2013-05-05 09:56:00,
2013-05-05 06:00:00,48.6,43.0,30.07,ENE,68,9.0,18.0,81,0.00,,,0.00,WUHU216DAVISVP2,2013-05-05 10:00:00,
2013-05-05 06:01:00,48.6,43.1,30.07,NE,34,8.0,18.0,81,0.00,,,0.00,WUHU216DAVISVP2,2013-05-05 10:01:00,
2013-05-05 06:06:00,48.6,43.1,30.07,ENE,62,9.0,19.0,81,0.00,,,0.00,WUHU216DAVISVP2,2013-05-05 10:06:00,
2013-05-05 06:11:00,48.5,43.3,30.08,ENE,57,14.0,19.0,82,0.00,,,0.00,WUHU216DAVISVP2,2013-05-05 10:11:00,
2013-05-05 06:16:00,48.5,43.3,30.08,ENE,57,12.0,18.0,82,0.00,,,0.00,WUHU216DAVISVP2,2013-05-05 10:16:00,
2013-05-05 06:21:00,48.5,43.3,30.07,ENE,57,13.0,20.0,82,0.00,,,0.00,WUHU216DAVISVP2,2013-05-05 10:21:00,
2013-05-05 06:26:00,48.4,43.2,30.07,NE,55,15.0,20.0,82,0.00,,,0.00,WUHU216DAVISVP2,2013-05-05 10:26:00,
2013-05-05 06:30:00,48.3,43.1,30.07,ENE,68,10.0,20.0,82,0.00,,,0.00,WUHU216DAVISVP2,2013-05-05 10:30:00,
2013-05-05 06:31:00,48.4,43.2,30.07,East,79,9.0,20.0,82,0.00,,,0.00,WUHU216DAVISVP2,2013-05-05 10:31:00,
2013-05-05 06:36:00,48.3,43.4,30.07,ENE,63,8.0,18.0,83,0.00,,,0.00,WUHU216DAVISVP2,2013-05-05 10:36:00,
2013-05-05 06:41:00,48.3,43.4,30.08,ENE,64,6.0,18.0,83,0.00,,,0.00,WUHU216DAVISVP2,2013-05-05 10:41:00,
2013-05-05 06:46:00,48.3,43.1,30.08,NE,47,5.0,17.0,82,0.00,,,0.00,WUHU216DAVISVP2,2013-05-05 10:46:00,
2013-05-05 06:51:00,48.3,42.8,30.08,NNE,33,6.0,15.0,81,0.00,,,0.00,WUHU216DAVISVP2,2013-05-05 10:51:00,
2013-05-05 06:56:00,48.1,42.6,30.09,ENE,59,7.0,13.0,81,0.00,,,0.00,WUHU216DAVISVP2,2013-05-05 10:56:00,
2013-05-05 07:00:00,48.1,42.5,30.09,ENE,68,8.0,16.0,81,0.00,,,0.00,WUHU216DAVISVP2,2013-05-05 11:00:00,
2013-05-05 07:01:00,48.1,42.2,30.09,ENE,57,9.0,15.0,80,0.00,,,0.00,WUHU216DAVISVP2,2013-05-05 11:01:00,
2013-05-05 07:06:00,48.0,42.2,30.09,East,81,9.0,19.0,80,0.00,,,0.00,WUHU216DAVISVP2,2013-05-05 11:06:00,
2013-05-05 07:11:00,47.9,42.1,30.09,East,82,11.0,19.0,80,0.00,,,0.00,WUHU216DAVISVP2,2013-05-05 11:11:00,
2013-05-05 07:16:00,47.9,42.0,30.09,NE,53,12.0,17.0,80,0.00,,,0.00,WUHU216DAVISVP2,2013-05-05 11:16:00,
2013-05-05 07:21:00,47.8,42.0,30.09,ENE,70,4.0,17.0,80,0.00,,,0.00,WUHU216DAVISVP2,2013-05-05 11:21:00,
2013-05-05 07:26:00,47.8,42.0,30.09,ENE,65,4.0,16.0,80,0.00,,,0.00,WUHU216DAVISVP2,2013-05-05 11:26:00,
2013-05-05 07:30:00,47.8,41.9,30.09,ENE,68,9.0,19.0,80,0.00,,,0.00,WUHU216DAVISVP2,2013-05-05 11:30:00,
2013-05-05 07:31:00,47.7,41.9,30.09,NE,53,10.0,14.0,80,0.00,,,0.00,WUHU216DAVISVP2,2013-05-05 11:31:00,
2013-05-05 07:36:00,47.7,41.5,30.09,ENE,64,12.0,15.0,79,0.00,,,0.00,WUHU216DAVISVP2,2013-05-05 11:36:00,
2013-05-05 07:41:00,47.6,41.8,30.09,NE,53,4.0,15.0,80,0.00,,,0.00,WUHU216DAVISVP2,2013-05-05 11:41:00,
2013-05-05 07:46:00,47.5,41.7,30.09,NNE,33,10.0,15.0,80,0.00,,,0.00,WUHU216DAVISVP2,2013-05-05 11:46:00,
2013-05-05 07:50:00,47.5,41.7,30.08,ENE,64,11.0,18.0,80,0.00,,,0.00,WUHU216DAVISVP2,2013-05-05 11:50:00,
2013-05-05 07:55:00,47.5,41.6,30.09,SE,128,5.0,18.0,80,0.00,,,0.00,WUHU216DAVISVP2,2013-05-05 11:55:00,
2013-05-05 08:00:00,47.5,41.6,30.08,NE,47,10.0,17.0,80,0.00,,,0.00,WUHU216DAVISVP2,2013-05-05 12:00:00,
2013-05-05 08:05:00,47.6,41.8,30.09,ENE,67,16.0,17.0,80,0.00,,,0.00,WUHU216DAVISVP2,2013-05-05 12:05:00,
2013-05-05 08:10:00,47.6,41.8,30.09,ENE,65,13.0,17.0,80,0.00,,,0.00,WUHU216DAVISVP2,2013-05-05 12:10:00,
2013-05-05 08:15:00,47.7,42.2,30.08,ENE,60,8.0,16.0,81,0.00,,,0.00,WUHU216DAVISVP2,2013-05-05 12:15:00,
2013-05-05 08:20:00,48.0,42.2,30.09,NE,53,9.0,16.0,80,0.00,,,0.00,WUHU216DAVISVP2,2013-05-05 12:20:00,
2013-05-05 08:25:00,48.0,42.2,30.09,ENE,60,9.0,16.0,80,0.00,,,0.00,WUHU216DAVISVP2,2013-05-05 12:25:00,
2013-05-05 08:30:00,48.1,42.5,30.09,NNE,25,7.0,16.0,81,0.00,,,0.00,WUHU216DAVISVP2,2013-05-05 12:30:00,
2013-05-05 08:35:00,48.2,42.3,30.09,ENE,73,9.0,16.0,80,0.00,,,0.00,WUHU216DAVISVP2,2013-05-05 12:35:00,
2013-05-05 08:41:00,48.1,42.6,30.09,ENE,65,15.0,22.0,81,0.00,,,0.00,WUHU216DAVISVP2,2013-05-05 12:41:00,
2013-05-05 08:46:00,48.0,42.5,30.09,NE,49,12.0,22.0,81,0.00,,,0.00,WUHU216DAVISVP2,2013-05-05 12:46:00,
2013-05-05 08:51:00,48.2,42.7,30.08,ENE,67,13.0,20.0,81,0.00,,,0.00,WUHU216DAVISVP2,2013-05-05 12:51:00,
2013-05-05 08:56:00,48.2,42.7,30.09,ENE,58,16.0,26.0,81,0.00,,,0.00,WUHU216DAVISVP2,2013-05-05 12:56:00,
2013-05-05 09:00:00,48.1,42.5,30.09,ENE,68,12.0,26.0,81,0.00,,,0.00,WUHU216DAVISVP2,2013-05-05 13:00:00,
2013-05-05 09:01:00,48.1,42.6,30.09,ENE,63,8.0,26.0,81,0.00,,,0.00,WUHU216DAVISVP2,2013-05-05 13:01:00,
2013-05-05 09:06:00,48.2,42.7,30.09,ENE,70,14.0,26.0,81,0.00,,,0.00,WUHU216DAVISVP2,2013-05-05 13:06:00,
2013-05-05 09:11:00,48.2,42.7,30.10,NE,47,9.0,24.0,81,0.00,,,0.00,WUHU216DAVISVP2,2013-05-05 13:11:00,
2013-05-05 09:16:00,48.1,42.9,30.09,NE,43,9.0,21.0,82,0.00,,,0.00,WUHU216DAVISVP2,2013-05-05 13:16:00,
2013-05-05 09:21:00,48.2,43.0,30.09,ESE,115,11.0,18.0,82,0.00,,,0.00,WUHU216DAVISVP2,2013-05-05 13:21:00,
2013-05-05 09:26:00,48.2,43.0,30.09,East,82,14.0,21.0,82,0.00,,,0.00,WUHU216DAVISVP2,2013-05-05 13:26:00,
2013-05-05 09:30:00,48.2,43.0,30.09,NE,45,11.0,21.0,82,0.00,,,0.00,WUHU216DAVISVP2,2013-05-05 13:30:00,
2013-05-05 09:31:00,48.3,43.4,30.09,NNE,25,9.0,21.0,83,0.00,,,0.00,WUHU216DAVISVP2,2013-05-05 13:31:00,
2013-05-05 09:36:00,48.3,43.1,30.09,NE,49,14.0,20.0,82,0.00,,,0.00,WUHU216DAVISVP2,2013-05-05 13:36:00,
2013-05-05 09:41:00,48.4,43.5,30.09,ENE,57,4.0,20.0,83,0.00,,,0.00,WUHU216DAVISVP2,2013-05-05 13:41:00,
2013-05-05 09:46:00,48.5,43.3,30.09,NE,55,9.0,17.0,82,0.00,,,0.00,WUHU216DAVISVP2,2013-05-05 13:46:00,
2013-05-05 09:51:00,48.5,43.6,30.09,NE,56,10.0,17.0,83,0.00,,,0.00,WUHU216DAVISVP2,2013-05-05 13:51:00,
2013-05-05 09:56:00,48.6,43.4,30.10,ESE,106,10.0,19.0,82,0.00,,,0.00,WUHU216DAVISVP2,2013-05-05 13:56:00,
2013-05-05 10:00:00,48.6,43.7,30.10,ENE,68,9.0,19.0,83,0.00,,,0.00,WUHU216DAVISVP2,2013-05-05 14:00:00,
2013-05-05 10:01:00,48.6,43.7,30.09,ENE,57,12.0,19.0,83,0.00,,,0.00,WUHU216DAVISVP2,2013-05-05 14:01:00,
2013-05-05 10:06:00,48.7,43.8,30.10,NNE,27,9.0,17.0,83,0.00,,,0.00,WUHU216DAVISVP2,2013-05-05 14:06:00,
2013-05-05 10:11:00,48.6,43.7,30.10,ENE,58,9.0,17.0,83,0.00,,,0.00,WUHU216DAVISVP2,2013-05-05 14:11:00,
2013-05-05 10:16:00,48.7,43.8,30.09,NE,55,10.0,17.0,83,0.00,,,0.00,WUHU216DAVISVP2,2013-05-05 14:16:00,
2013-05-05 10:21:00,48.7,43.8,30.10,ENE,65,19.0,19.0,83,0.00,,,0.00,WUHU216DAVISVP2,2013-05-05 14:21:00,
2013-05-05 10:26:00,48.7,43.8,30.10,NE,53,13.0,19.0,83,0.00,,,0.00,WUHU216DAVISVP2,2013-05-05 14:26:00,
2013-05-05 10:30:00,48.7,43.8,30.10,ENE,68,10.0,19.0,83,0.00,,,0.00,WUHU216DAVISVP2,2013-05-05 14:30:00,
2013-05-05 10:31:00,48.7,43.8,30.10,ENE,57,9.0,19.0,83,0.00,,,0.00,WUHU216DAVISVP2,2013-05-05 14:31:00,
2013-05-05 10:36:00,48.8,43.9,30.10,NE,53,7.0,17.0,83,0.00,,,0.00,WUHU216DAVISVP2,2013-05-05 14:36:00,
2013-05-05 10:41:00,48.8,43.9,30.10,ENE,68,20.0,20.0,83,0.00,,,0.00,WUHU216DAVISVP2,2013-05-05 14:41:00,
2013-05-05 10:46:00,48.7,43.8,30.10,ENE,75,14.0,20.0,83,0.00,,,0.00,WUHU216DAVISVP2,2013-05-05 14:46:00,
2013-05-05 10:51:00,48.4,44.1,30.10,NE,53,11.0,20.0,85,0.00,,,0.00,WUHU216DAVISVP2,2013-05-05 14:51:00,
2013-05-05 10:55:00,48.3,44.3,30.10,ENE,59,14.0,19.0,86,0.00,,,0.00,WUHU216DAVISVP2,2013-05-05 14:55:00,
2013-05-05 11:00:00,48.1,44.4,30.10,East,92,11.0,20.0,87,0.00,,,0.00,WUHU216DAVISVP2,2013-05-05 15:00:00,
2013-05-05 11:05:00,47.9,44.5,30.09,ESE,105,10.0,20.0,88,0.00,,,0.00,WUHU216DAVISVP2,2013-05-05 15:05:00,
2013-05-05 11:10:00,47.8,45.0,30.09,ENE,65,15.0,20.0,90,0.00,,,0.00,WUHU216DAVISVP2,2013-05-05 15:10:00,
2013-05-05 11:15:00,47.6,44.8,30.10,ENE,67,10.0,19.0,90,0.00,,,0.00,WUHU216DAVISVP2,2013-05-05 15:15:00,
2013-05-05 11:20:00,47.4,44.9,30.10,ENE,61,6.0,17.0,91,0.00,,,0.00,WUHU216DAVISVP2,2013-05-05 15:20:00,
2013-05-05 11:25:00,47.5,45.2,30.10,ENE,58,10.0,17.0,92,0.00,,,0.00,WUHU216DAVISVP2,2013-05-05 15:25:00,
2013-05-05 11:30:00,47.4,44.9,30.10,NE,54,5.0,16.0,91,0.00,,,0.00,WUHU216DAVISVP2,2013-05-05 15:30:00,
2013-05-05 11:35:00,47.5,45.3,30.10,NE,39,5.0,16.0,92,0.00,,,0.00,WUHU216DAVISVP2,2013-05-05 15:35:00,
2013-05-05 11:40:00,47.6,45.3,30.10,NE,44,7.0,17.0,92,0.00,,,0.00,WUHU216DAVISVP2,2013-05-05 15:40:00,
2013-05-05 11:45:00,47.8,45.5,30.09,ESE,107,12.0,17.0,92,0.00,,,0.00,WUHU216DAVISVP2,2013-05-05 15:45:00,
2013-05-05 11:50:00,47.9,45.4,30.09,NNE,25,6.0,15.0,91,0.00,,,0.00,WUHU216DAVISVP2,2013-05-05 15:50:00,
2013-05-05 11:55:00,48.2,45.7,30.09,NE,49,6.0,15.0,91,0.00,,,0.00,WUHU216DAVISVP2,2013-05-05 15:55:00,
2013-05-05 12:00:00,48.3,45.2,30.09,ENE,58,12.0,19.0,89,0.00,,,0.00,WUHU216DAVISVP2,2013-05-05 16:00:00,
2013-05-05 12:05:00,48.4,45.3,30.08,East,85,8.0,19.0,89,0.00,,,0.00,WUHU216DAVISVP2,2013-05-05 16:05:00,
2013-05-05 12:10:00,48.7,45.6,30.08,NE,39,11.0,17.0,89,0.00,,,0.00,WUHU216DAVISVP2,2013-05-05 16:10:00,
2013-05-05 12:15:00,49.0,45.6,30.08,ENE,58,9.0,17.0,88,0.00,,,0.00,WUHU216DAVISVP2,2013-05-05 16:15:00,
2013-05-05 12:20:00,49.2,45.5,30.08,NNE,29,14.0,17.0,87,0.00,,,0.00,WUHU216DAVISVP2,2013-05-05 16:20:00,
2013-05-05 12:25:00,49.4,45.7,30.07,NE,53,9.0,17.0,87,0.00,,,0.00,WUHU216DAVISVP2,2013-05-05 16:25:00,
2013-05-05 12:30:00,49.6,45.6,30.07,ENE,57,9.0,22.0,86,0.00,,,0.00,WUHU216DAVISVP2,2013-05-05 16:30:00,
2013-05-05 12:35:00,49.8,45.8,30.07,ENE,63,9.0,22.0,86,0.00,,,0.00,WUHU216DAVISVP2,2013-05-05 16:35:00,
2013-05-05 12:40:00,50.0,45.7,30.07,NE,50,13.0,20.0,85,0.00,,,0.00,WUHU216DAVISVP2,2013-05-05 16:40:00,
2013-05-05 12:45:00,50.1,46.1,30.07,NE,53,18.0,20.0,86,0.00,,,0.00,WUHU216DAVISVP2,2013-05-05 16:45:00,
2013-05-05 12:50:00,50.3,46.0,30.07,NE,41,8.0,18.0,85,0.00,,,0.00,WUHU216DAVISVP2,2013-05-05 16:50:00,
2013-05-05 12:55:00,50.5,45.8,30.06,ENE,65,14.0,18.0,84,0.00,,,0.00,WUHU216DAVISVP2,2013-05-05 16:55:00,
2013-05-05 13:00:00,50.7,46.0,30.06,NE,47,7.0,19.0,84,0.00,,,0.00,WUHU216DAVISVP2,2013-05-05 17:00:00,
2013-05-05 13:05:00,50.9,46.2,30.06,NNE,29,12.0,19.0,84,0.00,,,0.00,WUHU216DAVISVP2,2013-05-05 17:05:00,
2013-05-05 13:10:00,51.0,46.3,30.06,NE,55,13.0,19.0,84,0.00,,,0.00,WUHU216DAVISVP2,2013-05-05 17:10:00,
2013-05-05 13:15:00,51.2,46.5,30.06,NE,40,11.0,19.0,84,0.00,,,0.00,WUHU216DAVISVP2,2013-05-05 17:15:00,
2013-05-05 13:20:00,51.5,46.5,30.06,ENE,65,10.0,21.0,83,0.00,,,0.00,WUHU216DAVISVP2,2013-05-05 17:20:00,
2013-05-05 13:25:00,51.8,46.5,30.06,SE,129,9.0,21.0,82,0.00,,,0.00,WUHU216DAVISVP2,2013-05-05 17:25:00,
2013-05-05 13:30:00,52.1,46.8,30.05,ESE,115,7.0,20.0,82,0.00,,,0.00,WUHU216DAVISVP2,2013-05-05 17:30:00,
2013-05-05 13:35:00,52.4,46.8,30.05,ENE,58,12.0,20.0,81,0.00,,,0.00,WUHU216DAVISVP2,2013-05-05 17:35:00,
2013-05-05 13:40:00,52.5,46.8,30.05,South,176,3.0,22.0,81,0.00,,,0.00,WUHU216DAVISVP2,2013-05-05 17:40:00,
2013-05-05 13:45:00,52.8,47.2,30.05,NE,35,6.0,22.0,81,0.00,,,0.00,WUHU216DAVISVP2,2013-05-05 17:45:00,
2013-05-05 13:50:00,53.1,47.1,30.05,ENE,58,12.0,21.0,80,0.00,,,0.00,WUHU216DAVISVP2,2013-05-05 17:50:00,
2013-05-05 13:55:00,52.9,47.3,30.05,NE,53,10.0,21.0,81,0.00,,,0.00,WUHU216DAVISVP2,2013-05-05 17:55:00,
2013-05-05 14:00:00,52.9,46.9,30.05,ENE,57,12.0,22.0,80,0.00,,,0.00,WUHU216DAVISVP2,2013-05-05 18:00:00,
2013-05-05 14:05:00,52.9,47.3,30.05,NE,37,14.0,22.0,81,0.00,,,0.00,WUHU216DAVISVP2,2013-05-05 18:05:00,
2013-05-05 14:10:00,52.8,47.1,30.05,ENE,75,10.0,21.0,81,0.00,,,0.00,WUHU216DAVISVP2,2013-05-05 18:10:00,
2013-05-05 14:15:00,52.8,47.2,30.05,ENE,60,6.0,21.0,81,0.00,,,0.00,WUHU216DAVISVP2,2013-05-05 18:15:00,
2013-05-05 14:20:00,52.8,47.2,30.05,ENE,71,10.0,20.0,81,0.00,,,0.00,WUHU216DAVISVP2,2013-05-05 18:20:00,
2013-05-05 14:25:00,52.7,47.4,30.05,NE,50,17.0,19.0,82,0.00,,,0.00,WUHU216DAVISVP2,2013-05-05 18:25:00,
2013-05-05 14:30:00,52.8,47.2,30.06,ENE,72,15.0,18.0,81,0.00,,,0.00,WUHU216DAVISVP2,2013-05-05 18:30:00,
2013-05-05 14:35:00,52.8,47.2,30.05,ENE,65,11.0,18.0,81,0.00,,,0.00,WUHU216DAVISVP2,2013-05-05 18:35:00,
2013-05-05 14:40:00,52.9,47.6,30.05,NE,49,11.0,16.0,82,0.00,,,0.00,WUHU216DAVISVP2,2013-05-05 18:40:00,
2013-05-05 14:45:00,53.1,47.5,30.05,NE,49,6.0,20.0,81,0.00,,,0.00,WUHU216DAVISVP2,2013-05-05 18:45:00,
2013-05-05 14:50:00,53.2,47.6,30.05,ENE,63,3.0,20.0,81,0.00,,,0.00,WUHU216DAVISVP2,2013-05-05 18:50:00,
2013-05-05 14:55:00,53.3,47.6,30.05,SE,129,6.0,18.0,81,0.00,,,0.00,WUHU216DAVISVP2,2013-05-05 18:55:00,
2013-05-05 15:00:00,53.4,47.7,30.05,NE,51,11.0,16.0,81,0.00,,,0.00,WUHU216DAVISVP2,2013-05-05 19:00:00,
2013-05-05 15:05:00,53.5,47.8,30.05,ENE,68,14.0,16.0,81,0.00,,,0.00,WUHU216DAVISVP2,2013-05-05 19:05:00,
2013-05-05 15:10:00,53.7,48.3,30.05,SE,136,3.0,16.0,82,0.00,,,0.00,WUHU216DAVISVP2,2013-05-05 19:10:00,
2013-05-05 15:15:00,53.8,48.1,30.04,NE,43,8.0,16.0,81,0.00,,,0.00,WUHU216DAVISVP2,2013-05-05 19:15:00,
2013-05-05 15:20:00,54.0,48.3,30.04,NNE,23,10.0,18.0,81,0.00,,,0.00,WUHU216DAVISVP2,2013-05-05 19:20:00,
2013-05-05 15:25:00,54.1,48.4,30.04,ENE,77,12.0,18.0,81,0.00,,,0.00,WUHU216DAVISVP2,2013-05-05 19:25:00,
2013-05-05 15:30:00,54.1,48.4,30.04,ENE,63,7.0,19.0,81,0.00,,,0.00,WUHU216DAVISVP2,2013-05-05 19:30:00,
2013-05-05 15:35:00,54.1,48.4,30.04,ENE,58,8.0,19.0,81,0.00,,,0.00,WUHU216DAVISVP2,2013-05-05 19:35:00,
2013-05-05 15:40:00,54.1,48.4,30.04,ENE,58,6.0,18.0,81,0.00,,,0.00,WUHU216DAVISVP2,2013-05-05 19:40:00,
2013-05-05 15:45:00,54.1,48.4,30.04,ENE,60,10.0,15.0,81,0.00,,,0.00,WUHU216DAVISVP2,2013-05-05 19:45:00,
2013-05-05 15:50:00,54.0,48.3,30.04,ENE,65,11.0,15.0,81,0.00,,,0.00,WUHU216DAVISVP2,2013-05-05 19:50:00,
2013-05-05 15:55:00,54.0,48.7,30.04,ENE,62,9.0,15.0,82,0.00,,,0.00,WUHU216DAVISVP2,2013-05-05 19:55:00,
2013-05-05 16:00:00,54.1,48.7,30.03,NNE,29,4.0,18.0,82,0.00,,,0.00,WUHU216DAVISVP2,2013-05-05 20:00:00,
2013-05-05 16:05:00,54.1,48.8,30.03,ENE,58,7.0,18.0,82,0.00,,,0.00,WUHU216DAVISVP2,2013-05-05 20:05:00,
2013-05-05 16:10:00,54.1,48.8,30.03,ENE,61,11.0,16.0,82,0.00,,,0.00,WUHU216DAVISVP2,2013-05-05 20:10:00,
2013-05-05 16:15:00,54.2,48.8,30.03,NE,53,9.0,19.0,82,0.00,,,0.00,WUHU216DAVISVP2,2013-05-05 20:15:00,
2013-05-05 16:20:00,54.1,49.1,30.03,ENE,64,9.0,19.0,83,0.00,,,0.00,WUHU216DAVISVP2,2013-05-05 20:20:00,
2013-05-05 16:25:00,53.9,49.2,30.03,ENE,65,8.0,18.0,84,0.00,,,0.00,WUHU216DAVISVP2,2013-05-05 20:25:00,
2013-05-05 16:30:00,53.8,49.4,30.02,ENE,57,4.0,18.0,85,0.00,,,0.00,WUHU216DAVISVP2,2013-05-05 20:30:00,
2013-05-05 16:35:00,53.7,49.6,30.02,NE,56,9.0,14.0,86,0.00,,,0.00,WUHU216DAVISVP2,2013-05-05 20:35:00,
2013-05-05 16:40:00,53.7,49.6,30.02,ENE,57,7.0,13.0,86,0.00,,,0.00,WUHU216DAVISVP2,2013-05-05 20:40:00,
2013-05-05 16:45:00,53.7,49.9,30.02,NE,53,5.0,13.0,87,0.00,,,0.00,WUHU216DAVISVP2,2013-05-05 20:45:00,
2013-05-05 16:50:00,53.8,49.7,30.02,NE,53,8.0,17.0,86,0.00,,,0.00,WUHU216DAVISVP2,2013-05-05 20:50:00,
2013-05-05 16:55:00,53.9,49.8,30.01,ENE,68,7.0,17.0,86,0.00,,,0.00,WUHU216DAVISVP2,2013-05-05 20:55:00,
2013-05-05 17:00:00,54.0,49.9,30.02,ENE,67,7.0,15.0,86,0.00,,,0.00,WUHU216DAVISVP2,2013-05-05 21:00:00,
2013-05-05 17:05:00,54.1,50.0,30.02,ENE,58,8.0,15.0,86,0.00,,,0.00,WUHU216DAVISVP2,2013-05-05 21:05:00,
2013-05-05 17:10:00,54.2,50.1,30.02,ENE,65,8.0,13.0,86,0.00,,,0.00,WUHU216DAVISVP2,2013-05-05 21:10:00,
2013-05-05 17:15:00,54.3,50.2,30.01,ENE,59,10.0,12.0,86,0.00,,,0.00,WUHU216DAVISVP2,2013-05-05 21:15:00,
2013-05-05 17:20:00,54.4,50.3,30.01,NE,55,8.0,17.0,86,0.00,,,0.00,WUHU216DAVISVP2,2013-05-05 21:20:00,
2013-05-05 17:25:00,54.4,50.3,30.01,NE,56,9.0,17.0,86,0.00,,,0.00,WUHU216DAVISVP2,2013-05-05 21:25:00,
2013-05-05 17:30:00,54.4,50.3,30.00,NE,51,15.0,22.0,86,0.00,,,0.00,WUHU216DAVISVP2,2013-05-05 21:30:00,
2013-05-05 17:35:00,54.4,50.6,30.00,NE,36,7.0,22.0,87,0.00,,,0.00,WUHU216DAVISVP2,2013-05-05 21:35:00,
2013-05-05 17:40:00,54.3,50.5,30.00,ENE,63,11.0,20.0,87,0.01,,,0.01,WUHU216DAVISVP2,2013-05-05 21:40:00,
2013-05-05 17:45:00,54.2,50.7,30.00,NE,51,17.0,20.0,88,0.01,,,0.01,WUHU216DAVISVP2,2013-05-05 21:45:00,
2013-05-05 17:50:00,54.1,50.9,30.00,ENE,70,8.0,18.0,89,0.02,,,0.02,WUHU216DAVISVP2,2013-05-05 21:50:00,
2013-05-05 17:55:00,54.1,51.2,30.00,NE,56,13.0,18.0,90,0.02,,,0.02,WUHU216DAVISVP2,2013-05-05 21:55:00,
2013-05-05 18:00:00,54.1,51.2,30.01,East,85,5.0,16.0,90,0.02,,,0.02,WUHU216DAVISVP2,2013-05-05 22:00:00,
2013-05-05 18:05:00,54.0,51.1,30.01,ENE,70,4.0,14.0,90,0.02,,,0.02,WUHU216DAVISVP2,2013-05-05 22:05:00,
2013-05-05 18:10:00,53.9,51.3,30.01,ENE,58,6.0,14.0,91,0.02,,,0.02,WUHU216DAVISVP2,2013-05-05 22:10:00,
2013-05-05 18:15:00,54.0,51.4,30.00,ENE,67,10.0,14.0,91,0.02,,,0.02,WUHU216DAVISVP2,2013-05-05 22:15:00,
2013-05-05 18:20:00,54.0,51.4,30.00,ENE,69,12.0,15.0,91,0.02,,,0.02,WUHU216DAVISVP2,2013-05-05 22:20:00,
2013-05-05 18:25:00,54.0,51.4,30.00,NE,49,3.0,15.0,91,0.03,,,0.03,WUHU216DAVISVP2,2013-05-05 22:25:00,
2013-05-05 18:30:00,54.1,51.8,30.00,ENE,58,8.0,15.0,92,0.03,,,0.03,WUHU216DAVISVP2,2013-05-05 22:30:00,
2013-05-05 18:35:00,54.1,51.8,30.00,ENE,68,14.0,15.0,92,0.03,,,0.03,WUHU216DAVISVP2,2013-05-05 22:35:00,
2013-05-05 18:40:00,54.2,51.9,30.00,East,88,8.0,15.0,92,0.02,,,0.03,WUHU216DAVISVP2,2013-05-05 22:40:00,
2013-05-05 18:45:00,54.2,51.9,30.00,NE,51,8.0,15.0,92,0.02,,,0.03,WUHU216DAVISVP2,2013-05-05 22:45:00,
2013-05-05 18:50:00,54.2,51.9,29.99,ENE,63,12.0,15.0,92,0.01,,,0.03,WUHU216DAVISVP2,2013-05-05 22:50:00,
2013-05-05 18:55:00,54.2,51.9,29.99,ENE,61,9.0,16.0,92,0.01,,,0.03,WUHU216DAVISVP2,2013-05-05 22:55:00,
2013-05-05 19:00:00,54.2,51.9,29.99,ENE,65,13.0,19.0,92,0.01,,,0.03,WUHU216DAVISVP2,2013-05-05 23:00:00,
2013-05-05 19:05:00,54.3,52.3,29.99,SE,125,4.0,19.0,93,0.01,,,0.03,WUHU216DAVISVP2,2013-05-05 23:05:00,
2013-05-05 19:10:00,54.4,52.4,29.99,ENE,57,6.0,17.0,93,0.01,,,0.03,WUHU216DAVISVP2,2013-05-05 23:10:00,
2013-05-05 19:15:00,54.4,52.4,29.99,ESE,105,9.0,17.0,93,0.01,,,0.03,WUHU216DAVISVP2,2013-05-05 23:15:00,
2013-05-05 19:20:00,54.5,52.5,29.99,ENE,68,10.0,18.0,93,0.01,,,0.03,WUHU216DAVISVP2,2013-05-05 23:20:00,
2013-05-05 19:25:00,54.7,52.7,29.99,ENE,58,15.0,18.0,93,0.00,,,0.03,WUHU216DAVISVP2,2013-05-05 23:25:00,
2013-05-05 19:30:00,54.7,52.7,29.99,ENE,65,12.0,17.0,93,0.00,,,0.03,WUHU216DAVISVP2,2013-05-05 23:30:00,
2013-05-05 19:35:00,54.7,52.7,29.99,ENE,67,8.0,17.0,93,0.00,,,0.03,WUHU216DAVISVP2,2013-05-05 23:35:00,
2013-05-05 19:40:00,54.8,52.8,30.00,East,92,13.0,16.0,93,0.00,,,0.03,WUHU216DAVISVP2,2013-05-05 23:40:00,
2013-05-05 19:45:00,54.9,52.9,29.99,ESE,107,9.0,15.0,93,0.00,,,0.03,WUHU216DAVISVP2,2013-05-05 23:45:00,
2013-05-05 19:50:00,54.9,52.9,30.00,ESE,115,19.0,22.0,93,0.00,,,0.03,WUHU216DAVISVP2,2013-05-05 23:50:00,
2013-05-05 19:55:00,54.9,52.6,30.00,SSW,209,3.0,22.0,92,0.00,,,0.03,WUHU216DAVISVP2,2013-05-05 23:55:00,
2013-05-05 20:00:00,54.9,52.9,30.00,East,82,9.0,23.0,93,0.00,,,0.03,WUHU216DAVISVP2,2013-05-06 00:00:00,
2013-05-05 20:05:00,54.9,52.9,30.00,NE,50,7.0,23.0,93,0.00,,,0.03,WUHU216DAVISVP2,2013-05-06 00:05:00,
2013-05-05 20:10:00,54.8,52.8,30.00,ENE,67,10.0,21.0,93,0.00,,,0.03,WUHU216DAVISVP2,2013-05-06 00:10:00,
2013-05-05 20:15:00,54.8,52.8,29.99,ENE,70,6.0,21.0,93,0.00,,,0.03,WUHU216DAVISVP2,2013-05-06 00:15:00,
2013-05-05 20:20:00,54.8,52.8,30.00,ENE,65,13.0,18.0,93,0.00,,,0.03,WUHU216DAVISVP2,2013-05-06 00:20:00,
2013-05-05 20:25:00,54.7,52.7,29.99,ENE,58,13.0,19.0,93,0.00,,,0.03,WUHU216DAVISVP2,2013-05-06 00:25:00,
2013-05-05 20:30:00,54.8,52.8,30.00,ENE,57,14.0,22.0,93,0.00,,,0.03,WUHU216DAVISVP2,2013-05-06 00:30:00,
2013-05-05 20:35:00,54.7,52.7,30.00,ENE,68,10.0,22.0,93,0.00,,,0.03,WUHU216DAVISVP2,2013-05-06 00:35:00,
2013-05-05 20:40:00,54.7,52.7,30.00,ENE,60,11.0,20.0,93,0.00,,,0.03,WUHU216DAVISVP2,2013-05-06 00:40:00,
2013-05-05 20:45:00,54.7,52.7,30.00,ENE,59,10.0,21.0,93,0.00,,,0.03,WUHU216DAVISVP2,2013-05-06 00:45:00,
2013-05-05 20:50:00,54.7,52.7,30.00,East,99,7.0,21.0,93,0.00,,,0.03,WUHU216DAVISVP2,2013-05-06 00:50:00,
2013-05-05 20:55:00,54.7,52.7,30.00,East,81,13.0,19.0,93,0.00,,,0.03,WUHU216DAVISVP2,2013-05-06 00:55:00,
2013-05-05 21:00:00,54.6,52.6,30.00,ENE,63,14.0,19.0,93,0.00,,,0.03,WUHU216DAVISVP2,2013-05-06 01:00:00,
2013-05-05 21:05:00,54.6,52.6,30.00,ENE,67,12.0,24.0,93,0.00,,,0.03,WUHU216DAVISVP2,2013-05-06 01:05:00,
2013-05-05 21:10:00,54.6,52.6,30.00,NE,44,14.0,24.0,93,0.00,,,0.03,WUHU216DAVISVP2,2013-05-06 01:10:00,
2013-05-05 21:15:00,54.6,52.6,30.00,NE,44,17.0,22.0,93,0.00,,,0.03,WUHU216DAVISVP2,2013-05-06 01:15:00,
2013-05-05 21:20:00,54.5,52.5,30.00,ENE,58,11.0,22.0,93,0.00,,,0.03,WUHU216DAVISVP2,2013-05-06 01:20:00,
2013-05-05 21:25:00,54.5,52.5,30.00,NE,50,6.0,22.0,93,0.00,,,0.03,WUHU216DAVISVP2,2013-05-06 01:25:00,
2013-05-05 21:30:00,54.6,52.6,30.01,ENE,67,10.0,21.0,93,0.00,,,0.03,WUHU216DAVISVP2,2013-05-06 01:30:00,
2013-05-05 21:35:00,54.5,52.5,30.01,North,11,16.0,19.0,93,0.00,,,0.03,WUHU216DAVISVP2,2013-05-06 01:35:00,
2013-05-05 21:40:00,54.6,52.6,30.01,ENE,59,13.0,19.0,93,0.00,,,0.03,WUHU216DAVISVP2,2013-05-06 01:40:00,
2013-05-05 21:45:00,54.6,52.6,30.01,NE,50,14.0,19.0,93,0.00,,,0.03,WUHU216DAVISVP2,2013-05-06 01:45:00,
2013-05-05 21:50:00,54.6,52.6,30.01,ENE,63,9.0,19.0,93,0.01,,,0.04,WUHU216DAVISVP2,2013-05-06 01:50:00,
2013-05-05 21:55:00,54.5,52.5,30.01,NE,47,14.0,22.0,93,0.02,,,0.05,WUHU216DAVISVP2,2013-05-06 01:55:00,
2013-05-05 22:00:00,54.4,52.4,30.01,ENE,65,17.0,22.0,93,0.04,,,0.07,WUHU216DAVISVP2,2013-05-06 02:00:00,
2013-05-05 22:05:00,54.3,52.3,30.01,NE,43,12.0,21.0,93,0.05,,,0.08,WUHU216DAVISVP2,2013-05-06 02:05:00,
2013-05-05 22:10:00,54.2,52.5,30.01,ENE,63,9.0,21.0,94,0.05,,,0.08,WUHU216DAVISVP2,2013-05-06 02:10:00,
2013-05-05 22:15:00,54.1,52.4,30.01,ENE,58,9.0,19.0,94,0.06,,,0.09,WUHU216DAVISVP2,2013-05-06 02:15:00,
2013-05-05 22:20:00,54.0,52.3,30.01,ENE,61,8.0,19.0,94,0.07,,,0.10,WUHU216DAVISVP2,2013-05-06 02:20:00,
2013-05-05 22:25:00,54.1,52.4,30.01,ENE,58,10.0,19.0,94,0.08,,,0.11,WUHU216DAVISVP2,2013-05-06 02:25:00,
2013-05-05 22:30:00,54.0,52.3,30.00,ENE,60,6.0,19.0,94,0.08,,,0.11,WUHU216DAVISVP2,2013-05-06 02:30:00,
2013-05-05 22:35:00,53.9,52.2,30.00,ENE,65,6.0,18.0,94,0.09,,,0.12,WUHU216DAVISVP2,2013-05-06 02:35:00,
2013-05-05 22:40:00,53.9,52.2,30.01,ESE,108,8.0,18.0,94,0.09,,,0.12,WUHU216DAVISVP2,2013-05-06 02:40:00,
2013-05-05 22:45:00,53.9,52.5,30.01,NE,53,7.0,15.0,95,0.09,,,0.12,WUHU216DAVISVP2,2013-05-06 02:45:00,
2013-05-05 22:50:00,53.8,52.4,30.01,ENE,60,10.0,16.0,95,0.09,,,0.13,WUHU216DAVISVP2,2013-05-06 02:50:00,
2013-05-05 22:55:00,53.8,52.4,30.01,NE,53,16.0,19.0,95,0.08,,,0.13,WUHU216DAVISVP2,2013-05-06 02:55:00,
2013-05-05 23:00:00,53.8,52.4,30.01,ENE,63,8.0,19.0,95,0.06,,,0.13,WUHU216DAVISVP2,2013-05-06 03:00:00,
2013-05-05 23:05:00,53.8,52.4,30.00,NE,51,11.0,18.0,95,0.05,,,0.13,WUHU216DAVISVP2,2013-05-06 03:05:00,
2013-05-05 23:10:00,53.8,52.4,30.00,ENE,57,10.0,19.0,95,0.05,,,0.13,WUHU216DAVISVP2,2013-05-06 03:10:00,
2013-05-05 23:15:00,53.8,52.4,30.00,ESE,113,13.0,21.0,95,0.04,,,0.13,WUHU216DAVISVP2,2013-05-06 03:15:00,
2013-05-05 23:20:00,53.8,52.4,30.00,ENE,60,12.0,21.0,95,0.04,,,0.14,WUHU216DAVISVP2,2013-05-06 03:20:00,
2013-05-05 23:25:00,53.8,52.4,30.00,ENE,67,7.0,20.0,95,0.03,,,0.14,WUHU216DAVISVP2,2013-05-06 03:25:00,
2013-05-05 23:30:00,53.8,52.4,30.00,ENE,63,11.0,20.0,95,0.03,,,0.14,WUHU216DAVISVP2,2013-05-06 03:30:00,
2013-05-05 23:35:00,53.7,52.3,30.00,NE,49,11.0,16.0,95,0.03,,,0.15,WUHU216DAVISVP2,2013-05-06 03:35:00,
2013-05-05 23:40:00,53.8,52.4,30.01,ENE,64,12.0,15.0,95,0.03,,,0.15,WUHU216DAVISVP2,2013-05-06 03:40:00,
2013-05-05 23:45:00,53.8,52.4,30.01,ESE,115,9.0,16.0,95,0.03,,,0.15,WUHU216DAVISVP2,2013-05-06 03:45:00,
2013-05-05 23:50:00,53.7,52.3,30.01,NE,53,9.0,19.0,95,0.02,,,0.15,WUHU216DAVISVP2,2013-05-06 03:50:00,
2013-05-05 23:55:00,53.7,52.3,30.01,ENE,65,5.0,19.0,95,0.03,,,0.16,WUHU216DAVISVP2,2013-05-06 03:55:00,